Torna al catalogo

USA 121

AttivoMilitareLEO
NORAD 23908·PAYLOAD·🇺🇸 United States

Lanciato May 12, 1996 da Vandenberg Space Force Base

Loading…

Prossimi Passaggi (prossime 24 ore)

TLE

AggiornatoSource: Space-Track

Epoca: Sep 14, 2026, 13:25 UTC

1 23908U 96029C   26257.55956509  .00000593  00000-0  11213-3 0  9992
2 23908  63.3183 317.6173 0855922  50.9063 316.4972 13.46493324115402

Traccia USA 121 in tempo reale con AllMySat

Download on the App Store